TimeCST,TemperatureF,Dew PointF,Humidity,Sea Level PressureIn,VisibilityMPH,Wind Direction,Wind SpeedMPH,Gust SpeedMPH,PrecipitationIn,Events,Conditions,WindDirDegrees,DateUTC
12:56 AM,30.9,28.9,92,30.10,4.0,South,6.9,-,N/A,,Clear,180,2011-11-23 06:56:00
1:56 AM,30.9,28.9,92,30.09,4.0,SSW,3.5,-,N/A,,Clear,200,2011-11-23 07:56:00
2:47 AM,26.6,24.8,93,30.05,3.0,Calm,Calm,-,N/A,Fog,Patches of Fog,0,2011-11-23 08:47:00
2:56 AM,27.0,26.1,96,30.10,3.0,Calm,Calm,-,N/A,Fog,Patches of Fog,0,2011-11-23 08:56:00
3:20 AM,23.0,21.2,93,30.06,2.0,Calm,Calm,-,N/A,Fog,Patches of Fog,0,2011-11-23 09:20:00
3:29 AM,21.2,19.4,93,30.05,1.0,Calm,Calm,-,N/A,,Mist,0,2011-11-23 09:29:00
3:40 AM,21.2,19.4,93,30.06,0.8,Calm,Calm,-,N/A,,Mist,0,2011-11-23 09:40:00
3:56 AM,19.0,18.0,96,30.11,2.0,Calm,Calm,-,N/A,Fog,Patches of Fog,0,2011-11-23 09:56:00
4:02 AM,19.4,17.6,93,30.06,1.0,Calm,Calm,-,N/A,,Mist,0,2011-11-23 10:02:00
4:16 AM,19.4,17.6,93,30.06,0.5,NNE,4.6,-,N/A,Fog,Light Freezing Fog,30,2011-11-23 10:16:00
4:24 AM,19.4,17.6,93,30.06,0.2,NNE,3.5,-,N/A,Fog,Light Freezing Fog,20,2011-11-23 10:24:00
4:56 AM,21.0,19.0,92,30.12,0.2,Calm,Calm,-,N/A,Fog,Light Freezing Fog,0,2011-11-23 10:56:00
5:56 AM,21.0,19.0,92,30.12,0.2,Calm,Calm,-,N/A,Fog,Light Freezing Fog,0,2011-11-23 11:56:00
6:29 AM,21.2,19.4,93,30.06,0.2,Calm,Calm,-,N/A,,Mist,0,2011-11-23 12:29:00
6:48 AM,21.2,17.6,86,30.06,0.8,Calm,Calm,-,N/A,,Mostly Cloudy,0,2011-11-23 12:48:00
6:56 AM,21.0,19.0,92,30.12,0.8,Calm,Calm,-,N/A,,Scattered Clouds,0,2011-11-23 12:56:00
7:22 AM,19.4,17.6,93,30.07,1.5,Calm,Calm,-,N/A,,Scattered Clouds,0,2011-11-23 13:22:00
7:41 AM,19.4,17.6,93,30.07,0.2,East,5.8,-,N/A,Fog,Light Freezing Fog,80,2011-11-23 13:41:00
7:47 AM,21.2,19.4,93,30.07,0.2,East,4.6,-,N/A,Fog,Light Freezing Fog,100,2011-11-23 13:47:00
7:56 AM,23.0,19.9,88,30.12,0.2,East,5.8,-,N/A,Fog,Light Freezing Fog,100,2011-11-23 13:56:00
8:39 AM,26.6,23.0,86,30.08,1.0,Calm,Calm,-,N/A,,Mist,0,2011-11-23 14:39:00
8:43 AM,26.6,23.0,86,30.08,1.5,Calm,Calm,-,N/A,,Scattered Clouds,0,2011-11-23 14:43:00
8:56 AM,26.6,26.6,100,30.08,2.0,Calm,Calm,-,N/A,,Partly Cloudy,0,2011-11-23 14:56:00
9:04 AM,28.4,26.6,93,30.08,4.0,Calm,Calm,-,N/A,,Clear,0,2011-11-23 15:04:00
9:56 AM,32.0,30.0,92,30.13,7.0,SSE,3.5,-,N/A,,Clear,160,2011-11-23 15:56:00
10:56 AM,39.9,32.0,73,30.13,10.0,SSW,5.8,-,N/A,,Clear,200,2011-11-23 16:56:00
11:56 AM,45.0,32.0,60,30.11,10.0,SW,5.8,-,N/A,,Clear,230,2011-11-23 17:56:00
12:56 PM,48.9,33.1,54,30.09,10.0,SSW,9.2,-,N/A,,Clear,200,2011-11-23 18:56:00
1:56 PM,51.1,30.9,46,30.06,10.0,South,9.2,-,N/A,,Clear,190,2011-11-23 19:56:00
2:56 PM,51.1,30.9,46,30.06,10.0,SSW,8.1,-,N/A,,Clear,200,2011-11-23 20:56:00
3:56 PM,50.0,30.9,48,30.06,10.0,SSW,8.1,-,N/A,,Clear,200,2011-11-23 21:56:00
4:56 PM,43.0,30.0,60,30.07,10.0,South,8.1,-,N/A,,Clear,180,2011-11-23 22:56:00
5:56 PM,43.0,32.0,65,30.06,10.0,South,10.4,-,N/A,,Clear,180,2011-11-23 23:56:00
6:56 PM,42.8,32.0,66,30.00,9.0,South,9.2,-,N/A,,Clear,180,2011-11-24 00:56:00
7:56 PM,39.9,32.0,73,30.05,10.0,South,9.2,-,N/A,,Clear,180,2011-11-24 01:56:00
8:56 PM,41.0,30.9,67,30.03,10.0,South,8.1,-,N/A,,Clear,180,2011-11-24 02:56:00
9:56 PM,39.9,30.9,70,30.02,10.0,Variable,5.8,-,N/A,,Clear,0,2011-11-24 03:56:00
10:56 PM,37.9,28.9,70,30.00,10.0,SSE,5.8,-,N/A,,Clear,160,2011-11-24 04:56:00
11:56 PM,39.9,30.0,68,29.97,10.0,South,11.5,-,N/A,,Clear,190,2011-11-24 05:56:00